Regional Weather Roundup
Issued by NWS Goodland, KS

Home | Current Version | Previous Version | Text Only | Print | Product List | Glossary On
Versions: 1 2 3 4 5 6 7 8 9 10 11 12 13 14 15 16 17 18 19 20 21 22 23 24 25 26 27 28 29 30 31 32 33 34 35 36 37 38 39 40 41 42 43 44 45 46 47 48 49 50
000
ASUS43 KGLD 010608
RWRGLD

GOODLAND FORECAST AREA HOURLY WEATHER ROUNDUP
NATIONAL WEATHER SERVICE GOODLAND KS
1200 AM MDT FRI AUG 01 2014

...OFFICIAL OBSERVATIONS...

CITY           SKY/WX    TMP DP  RH WIND       PRES   REMARKS
GOODLAND KS    CLEAR     63  53  70 W10       30.17S
HILL CITY KS   PTCLDY    73  52  47 CALM      30.08R
IMPERIAL NEB   CLEAR     65  54  67 E3        30.15S
MCCOOK NEB     CLEAR     66  55  67 N3        30.11S
AKRON CO       CLEAR     63  52  67 SW14      30.23R
BURLINGTON CO  CLEAR     61  51  70 W9        30.21S
LIMON CO       CLEAR     54  52  93 N5        30.30R
$$

...UNOFFICIAL OBSERVATIONS...

CITY           SKY/WX    TMP DP  RH WIND       PRES   REMARKS
COLBY KS       CLEAR     63  55  77 CALM      30.16R
GOVE KS          N/A     68  32  26 MISG        N/A
LENORA KS        N/A     73  32  22 MISG        N/A
NORTON KS      CLEAR     63  54  72 N6        30.08S
OBERLIN KS     FAIR      64  55  72 NE5       30.11S
ST FRANCIS KS  CLEAR     61  55  82 SW7       30.15S
WAKEENEY KS      N/A     70  51  51 MISG        N/A
TRENTON NEB      N/A     70  32  24 CALM        N/A
KIT CARSON CO    N/A     60  53  78 CALM        N/A
WRAY CO          N/A     66  55  68 W3        30.18
YUMA CO          N/A     62  53  72 SW5G12      N/A
$$



USA.gov is the U.S. government's official web portal to all federal, state and local government web resources and services.